Bangor, ME

10:04 PM EST on February 13, 2016 (GMT -0500)
Bangor International

Weather History for KBGR - April, 2013

Change the Weather History Date:

Thursday, April 25, 2013

  Actual Average Record
Temperature  
Mean Temperature 49 °F 46 °F  
Max Temperature 61 °F 57 °F 79 °F (1942)
Min Temperature 36 °F 36 °F 21 °F (1965)
Degree Days  
Heating Degree Days 16 19  
Month to date heating degree days 635 588  
Since 1 July heating degree days 7015 7311  
Cooling Degree Days 0 0  
Month to date cooling degree days 0 0  
Year to date cooling degree days 0 0  
Growing Degree Days 1 (Base 50)    
Moisture  
Dew Point 39 °F    
Average Humidity 65    
Maximum Humidity 100    
Minimum Humidity 29    
Precipitation  
Precipitation 0.09 in 0.12 in 1.82 in (1968)
Month to date precipitation 1.77 3.02  
Year to date precipitation 6.73 11.81  
Snow  
Snow 0.00 in 0.00 in 3.30 in (1962)
Month to date snowfall 1.1 3.6  
Since 1 July snowfall 74.3 66.0  
Snow Depth 0.00 in    
Sea Level Pressure  
Sea Level Pressure 29.96 in    
Wind  
Wind Speed 10 mph (WSW)    
Max Wind Speed 18 mph    
Max Gust Speed 28 mph    
Visibility 8 miles    
Events Rain    
T = Trace of Precipitation, MM = Missing Value Source: NWS Daily Summary

Daily Weather History Graph

Daily Weather History Graph

Search for Another Location

Airport or City:

Trip Planner

Search our weather history database for the weather conditions in past years. The results will help you decide how hot, cold, wet, or windy it might be!

Date:

Astronomy

Apr. 25, 2013 Rise Set
Actual Time 5:33 AM EDT 7:33 PM EDT
Civil Twilight 5:02 AM EDT 8:04 PM EDT
Nautical Twilight 4:23 AM EDT 8:43 PM EDT
Astronomical Twilight 3:41 AM EDT 9:26 PM EDT
Moon 7:43 PM EDT (4/25) 5:14 AM EDT (4/25)
Length of Visible Light 15h 02m
Length of Day
13h 59m
Full, 100% of the Moon is Illuminated
Apr 25
Full
Apr 25
Full
May 2
Last Quarter
May 9
New
May 18
First Quarter

Hourly Weather History & Observations

Time (EDT) Temp. Windchill Dew Point Humidity Pressure Visibility Wind Dir Wind Speed Gust Speed Precip Events Conditions
12:12 AM 46.4 °F 40.4 °F 44.6 °F 93% 29.81 in 10.0 mi South 13.8 mph 23.0 mph N/A   Scattered Clouds
12:41 AM 46.4 °F 40.4 °F 44.6 °F 93% 29.80 in 10.0 mi SSE 13.8 mph 20.7 mph N/A   Mostly Cloudy
12:53 AM 46.0 °F 40.6 °F 44.1 °F 93% 29.81 in 10.0 mi South 11.5 mph 18.4 mph N/A   Overcast
1:53 AM 45.0 °F 39.7 °F 43.0 °F 93% 29.78 in 8.0 mi South 10.4 mph - N/A   Overcast
2:46 AM 44.6 °F 38.8 °F 44.6 °F 100% 29.78 in 5.0 mi South 11.5 mph 20.7 mph N/A   Overcast
2:53 AM 45.0 °F 39.7 °F 44.1 °F 97% 29.78 in 5.0 mi South 10.4 mph 19.6 mph N/A   Overcast
3:53 AM 46.0 °F 39.9 °F 45.0 °F 96% 29.78 in 6.0 mi South 13.8 mph - N/A   Overcast
4:07 AM 46.4 °F 41.5 °F 44.6 °F 93% 29.78 in 6.0 mi South 10.4 mph - N/A   Overcast
4:53 AM 46.9 °F - 46.0 °F 97% 29.79 in 7.0 mi South 9.2 mph - N/A   Overcast
5:53 AM 48.0 °F - 46.9 °F 96% 29.84 in 7.0 mi SSW 6.9 mph - 0.00 in Rain Light Rain
6:48 AM 48.2 °F - 46.4 °F 93% 29.84 in 3.0 mi SSE 5.8 mph - 0.03 in Rain Light Rain
6:53 AM 48.0 °F - 46.9 °F 96% 29.84 in 4.0 mi SSE 6.9 mph - 0.03 in Rain Light Rain
7:12 AM 48.2 °F - 48.2 °F 100% 29.84 in 1.8 mi SSE 5.8 mph - 0.05 in Rain Heavy Rain
7:20 AM 48.2 °F - 48.2 °F 100% 29.84 in 3.0 mi South 8.1 mph - 0.06 in Rain Light Rain
7:53 AM 48.9 °F - 48.0 °F 97% 29.88 in 4.0 mi West 5.8 mph - 0.06 in   Overcast
8:14 AM 50.0 °F - 48.2 °F 94% 29.91 in 6.0 mi WSW 8.1 mph - N/A   Overcast
8:53 AM 51.1 °F - 48.0 °F 89% 29.93 in 9.0 mi West 8.1 mph - N/A   Overcast
9:53 AM 53.1 °F - 45.0 °F 74% 29.96 in 10.0 mi NW 5.8 mph - N/A   Mostly Cloudy
10:53 AM 54.0 °F - 39.0 °F 57% 30.00 in 10.0 mi West 9.2 mph - N/A   Overcast
11:53 AM 55.9 °F - 37.9 °F 51% 30.02 in 10.0 mi WNW 10.4 mph - N/A   Mostly Cloudy
12:53 PM 57.0 °F - 33.1 °F 40% 30.03 in 10.0 mi NW 11.5 mph - N/A   Scattered Clouds
1:53 PM 59.0 °F - 28.9 °F 32% 30.04 in 10.0 mi WNW 10.4 mph 24.2 mph N/A   Scattered Clouds
2:53 PM 60.1 °F - 28.9 °F 31% 30.06 in 10.0 mi WNW 10.4 mph 21.9 mph N/A   Scattered Clouds
3:53 PM 59.0 °F - 28.0 °F 31% 30.07 in 10.0 mi NW 12.7 mph 18.4 mph N/A   Scattered Clouds
4:53 PM 57.9 °F - 28.9 °F 33% 30.09 in 10.0 mi WNW 11.5 mph 19.6 mph N/A   Scattered Clouds
5:53 PM 57.0 °F - 27.0 °F 32% 30.13 in 10.0 mi NNW 16.1 mph - N/A   Scattered Clouds
6:53 PM 54.0 °F - 28.0 °F 37% 30.16 in 10.0 mi North 11.5 mph - N/A   Partly Cloudy
7:53 PM 48.9 °F - 28.9 °F 46% 30.20 in 10.0 mi NNW 8.1 mph - N/A   Partly Cloudy
8:53 PM 46.9 °F - 28.9 °F 50% 30.24 in 10.0 mi North 8.1 mph - N/A   Clear
9:53 PM 45.0 °F 40.6 °F 28.9 °F 53% 30.27 in 10.0 mi North 8.1 mph - N/A   Clear
10:53 PM 42.1 °F 39.2 °F 37.9 °F 85% 30.27 in 10.0 mi NNE 4.6 mph - N/A   Clear
11:53 PM 39.9 °F - 28.0 °F 63% 30.29 in 10.0 mi Calm Calm - N/A   Clear